• In Germany
  • List of Countries
  • For 7 days
  • Water Temperature
  • Satellite Maps
  • Weather Map
  • Weather Widgets
  • user-avatar
    Login

    Hourly Weather Stepanakert

    Today, 25 May, Thursday

    Time Temperature Precipitation Wind Pressure Humidity
    00:00 +11°C° 0.1 mm 1 mps 691 mmHg 80%
    01:00 +11°C° 0 mm 1 mps 691 mmHg 81%
    02:00 +11°C° 0 mm 1 mps 691 mmHg 82%
    03:00 +10°C° 0 mm 1 mps 691 mmHg 83%
    04:00 +12°C° 0 mm 1 mps 691 mmHg 78%
    05:00 +13°C° 0 mm 1 mps 692 mmHg 73%
    06:00 +15°C° 0 mm 1 mps 692 mmHg 68%
    07:00 +16°C° 0 mm 1 mps 693 mmHg 62%
    08:00 +18°C° 0 mm 2 mps 693 mmHg 55%
    09:00 +20°C° 0 mm 2 mps 693 mmHg 48%
    10:00 +21°C° 0.2 mm 3 mps 693 mmHg 46%
    11:00 +22°C° 0.2 mm 3 mps 693 mmHg 44%
    12:00 +22°C° 0.2 mm 3 mps 693 mmHg 42%
    13:00 +24°C° 0.2 mm 3 mps 693 mmHg 42%
    14:00 +24°C° 0.2 mm 3 mps 693 mmHg 42%
    15:00 +24°C° 0.2 mm 3 mps 692 mmHg 42%
    16:00 +23°C° 0.2 mm 2 mps 692 mmHg 47%
    17:00 +21°C° 0.2 mm 2 mps 692 mmHg 51%
    18:00 +21°C° 0.2 mm 2 mps 692 mmHg 55%
    19:00 +18°C° 0 mm 2 mps 692 mmHg 62%
    20:00 +16°C° 0 mm 1 mps 692 mmHg 70%
    21:00 +13°C° 0 mm 1 mps 692 mmHg 78%
    22:00 +12°C° 0 mm 1 mps 693 mmHg 80%
    23:00 +12°C° 0 mm 1 mps 693 mmHg 82%

    Tomorrow, 26 May, Friday

    Time Temperature Precipitation Wind Pressure Humidity
    00:00 +11°C° 0 mm 1 mps 693 mmHg 85%
    01:00 +11°C° 0 mm 1 mps 693 mmHg 86%
    02:00 +10°C° 0 mm 1 mps 692 mmHg 88%
    03:00 +10°C° 0 mm 1 mps 692 mmHg 90%
    04:00 +11°C° 0 mm 1 mps 693 mmHg 85%
    05:00 +13°C° 0 mm 1 mps 693 mmHg 80%
    06:00 +14°C° 0 mm 0 mps 694 mmHg 75%
    07:00 +16°C° 0 mm 1 mps 694 mmHg 68%
    08:00 +19°C° 0 mm 1 mps 694 mmHg 61%
    09:00 +20°C° 0 mm 2 mps 694 mmHg 54%
    10:00 +21°C° 0 mm 2 mps 694 mmHg 51%
    11:00 +22°C° 0 mm 3 mps 694 mmHg 48%
    12:00 +24°C° 0 mm 3 mps 693 mmHg 45%
    13:00 +25°C° 0 mm 3 mps 693 mmHg 45%
    14:00 +25°C° 0 mm 3 mps 693 mmHg 45%
    15:00 +25°C° 0 mm 3 mps 692 mmHg 45%
    16:00 +24°C° 0 mm 2 mps 692 mmHg 50%
    17:00 +23°C° 0 mm 2 mps 692 mmHg 55%
    18:00 +23°C° 0 mm 2 mps 692 mmHg 60%
    19:00 +19°C° 0.1 mm 2 mps 692 mmHg 68%
    20:00 +18°C° 0.1 mm 1 mps 691 mmHg 76%
    21:00 +15°C° 0.1 mm 1 mps 691 mmHg 84%
    22:00 +14°C° 0 mm 1 mps 691 mmHg 86%
    23:00 +14°C° 0 mm 1 mps 691 mmHg 87%

    Day after tomorrow, 27 May, Saturday

    Time Temperature Precipitation Wind Pressure Humidity
    00:00 +13°C° 0 mm 1 mps 691 mmHg 89%
    01:00 +12°C° 0 mm 1 mps 691 mmHg 90%
    02:00 +12°C° 0 mm 1 mps 691 mmHg 90%
    03:00 +12°C° 0 mm 1 mps 690 mmHg 91%
    04:00 +13°C° 0 mm 1 mps 691 mmHg 87%
    05:00 +14°C° 0 mm 0 mps 691 mmHg 83%
    06:00 +15°C° 0 mm 0 mps 691 mmHg 79%
    07:00 +19°C° 0 mm 1 mps 691 mmHg 71%
    08:00 +21°C° 0 mm 1 mps 692 mmHg 63%
    09:00 +21°C° 0 mm 2 mps 692 mmHg 54%
    10:00 +24°C° 0.2 mm 2 mps 691 mmHg 51%
    11:00 +25°C° 0.2 mm 3 mps 691 mmHg 48%
    12:00 +26°C° 0.2 mm 3 mps 691 mmHg 44%
    13:00 +26°C° 0.4 mm 3 mps 690 mmHg 44%
    14:00 +27°C° 0.4 mm 3 mps 690 mmHg 44%
    15:00 +27°C° 0.4 mm 3 mps 689 mmHg 43%
    16:00 +26°C° 0.3 mm 3 mps 689 mmHg 49%
    17:00 +25°C° 0.3 mm 2 mps 689 mmHg 54%
    18:00 +24°C° 0.3 mm 2 mps 688 mmHg 59%
    19:00 +21°C° 0.6 mm 1 mps 689 mmHg 67%
    20:00 +19°C° 0.6 mm 1 mps 689 mmHg 75%
    21:00 +15°C° 0.6 mm 1 mps 689 mmHg 83%
    22:00 +15°C° 0.2 mm 1 mps 689 mmHg 83%
    23:00 +15°C° 0.2 mm 1 mps 689 mmHg 82%

    28 May, Sunday

    Time Temperature Precipitation Wind Pressure Humidity
    00:00 +15°C° 0.2 mm 1 mps 689 mmHg 81%
    01:00 +15°C° 0 mm 1 mps 689 mmHg 80%
    02:00 +15°C° 0 mm 1 mps 689 mmHg 80%
    03:00 +14°C° 0 mm 2 mps 689 mmHg 79%
    04:00 +15°C° 0 mm 2 mps 690 mmHg 74%
    05:00 +16°C° 0 mm 2 mps 690 mmHg 70%
    06:00 +17°C° 0 mm 2 mps 690 mmHg 65%
    07:00 +20°C° 0 mm 2 mps 691 mmHg 56%
    08:00 +23°C° 0 mm 2 mps 691 mmHg 47%
    09:00 +25°C° 0 mm 2 mps 691 mmHg 38%
    10:00 +26°C° 0 mm 2 mps 691 mmHg 36%
    11:00 +27°C° 0 mm 3 mps 691 mmHg 34%
    12:00 +28°C° 0 mm 3 mps 691 mmHg 31%
    13:00 +29°C° 0 mm 3 mps 690 mmHg 31%
    14:00 +29°C° 0 mm 3 mps 690 mmHg 30%
    15:00 +29°C° 0 mm 3 mps 690 mmHg 30%
    16:00 +28°C° 0 mm 3 mps 690 mmHg 35%
    17:00 +27°C° 0 mm 2 mps 690 mmHg 40%
    18:00 +26°C° 0 mm 2 mps 690 mmHg 44%
    19:00 +23°C° 0.1 mm 2 mps 690 mmHg 51%
    20:00 +19°C° 0.1 mm 2 mps 690 mmHg 59%
    21:00 +17°C° 0.1 mm 2 mps 691 mmHg 66%
    22:00 +16°C° 0 mm 2 mps 691 mmHg 67%
    23:00 +16°C° 0 mm 2 mps 691 mmHg 68%

    29 May, Monday

    Time Temperature Precipitation Wind Pressure Humidity
    00:00 +15°C° 0 mm 1 mps 691 mmHg 69%
    01:00 +15°C° 0 mm 1 mps 691 mmHg 69%
    02:00 +14°C° 0 mm 1 mps 691 mmHg 70%
    03:00 +14°C° 0 mm 1 mps 691 mmHg 70%
    04:00 +15°C° 0 mm 1 mps 692 mmHg 68%
    05:00 +16°C° 0 mm 1 mps 693 mmHg 65%
    06:00 +18°C° 0 mm 1 mps 693 mmHg 62%
    07:00 +19°C° 0 mm 2 mps 694 mmHg 58%
    08:00 +20°C° 0 mm 2 mps 694 mmHg 53%
    09:00 +22°C° 0 mm 3 mps 694 mmHg 49%
    10:00 +22°C° 0.2 mm 3 mps 694 mmHg 50%
    11:00 +22°C° 0.2 mm 4 mps 694 mmHg 51%
    12:00 +23°C° 0.2 mm 4 mps 694 mmHg 52%
    13:00 +22°C° 0.5 mm 4 mps 694 mmHg 54%
    14:00 +22°C° 0.5 mm 5 mps 694 mmHg 56%
    15:00 +21°C° 0.5 mm 5 mps 693 mmHg 58%
    16:00 +20°C° 0.2 mm 5 mps 694 mmHg 62%
    17:00 +19°C° 0.2 mm 4 mps 694 mmHg 66%
    18:00 +17°C° 0.2 mm 4 mps 694 mmHg 69%
    19:00 +15°C° 0.1 mm 4 mps 694 mmHg 74%
    20:00 +13°C° 0.1 mm 3 mps 695 mmHg 78%
    21:00 +13°C° 0.1 mm 2 mps 695 mmHg 83%
    22:00 +12°C° 0 mm 2 mps 695 mmHg 83%
    23:00 +10°C° 0 mm 2 mps 696 mmHg 83%

    30 May, Tuesday

    Time Temperature Precipitation Wind Pressure Humidity
    00:00 +11°C° 0 mm 1 mps 696 mmHg 84%
    01:00 +10°C° 0 mm 1 mps 696 mmHg 84%
    02:00 +10°C° 0 mm 1 mps 696 mmHg 85%
    03:00 +9°C° 0 mm 1 mps 696 mmHg 85%
    04:00 +11°C° 0 mm 1 mps 696 mmHg 82%
    05:00 +12°C° 0 mm 1 mps 696 mmHg 79%
    06:00 +13°C° 0 mm 1 mps 697 mmHg 75%
    07:00 +15°C° 0 mm 1 mps 697 mmHg 69%
    08:00 +16°C° 0 mm 2 mps 697 mmHg 63%
    09:00 +18°C° 0 mm 2 mps 697 mmHg 57%
    10:00 +20°C° 0 mm 2 mps 696 mmHg 53%
    11:00 +21°C° 0 mm 2 mps 696 mmHg 50%
    12:00 +22°C° 0 mm 3 mps 696 mmHg 46%
    13:00 +24°C° 0 mm 3 mps 695 mmHg 45%
    14:00 +24°C° 0 mm 3 mps 695 mmHg 44%
    15:00 +25°C° 0 mm 3 mps 694 mmHg 43%
    16:00 +24°C° 0 mm 2 mps 694 mmHg 47%
    17:00 +23°C° 0 mm 2 mps 694 mmHg 51%
    18:00 +22°C° 0 mm 1 mps 694 mmHg 55%
    19:00 +20°C° 0 mm 1 mps 693 mmHg 63%
    20:00 +16°C° 0 mm 1 mps 693 mmHg 71%
    21:00 +14°C° 0 mm 1 mps 693 mmHg 79%
    22:00 +14°C° 0 mm 1 mps 693 mmHg 78%
    23:00 +14°C° 0 mm 1 mps 692 mmHg 77%
    Show more